Weather History for Branson West Muni - Emerson F, MO

Change the Weather History Date:

Saturday, February 15, 2014

  Actual Average (KHRO) Record (KHRO)
Temperature  
Mean Temperature 38 °F 40 °F  
Max Temperature 57 °F 51 °F 80 °F (1945)
Min Temperature 19 °F 30 °F -6 °F (1905)
Degree Days  
Heating Degree Days 27 25  
Month to date heating degree days 390  
Since 1 July heating degree days 2876  
Cooling Degree Days 0 0  
Month to date cooling degree days 0  
Year to date cooling degree days 0  
Moisture  
Dew Point 22 °F    
Average Humidity 59    
Maximum Humidity 93    
Minimum Humidity 25    
Precipitation  
Precipitation 0.00 in 0.09 in 2.44 in (1903)
Month to date precipitation 1.35  
Year to date precipitation 3.91  
Snow  
Snow 0.00 in 0.10 in 14.30 in (1993)
Month to date snowfall 1.9  
Since 1 July snowfall 7.9  
Snow Depth -    
Sea Level Pressure  
Sea Level Pressure 30.03 in    
Wind  
Wind Speed 5 mph (SSW)    
Max Wind Speed 17 mph    
Max Gust Speed 24 mph    
Visibility 10 miles    
Events      
T = Trace of Precipitation, MM = Missing Value Source: NWS Daily Summary

Daily Weather History Graph

Daily Weather History Graph

Search for Another Location

Airport:

Trip Planner

Search our weather history database for the weather conditions in past years. The results will help you decide how hot, cold, wet, or windy it might be!

Date:

Astronomy

Feb. 15, 2014 Rise Set
Actual Time 7:01 AM CST 5:54 PM CST
Civil Twilight 6:35 AM CST 6:20 PM CST
Nautical Twilight 6:05 AM CST 6:50 PM CST
Astronomical Twilight 5:34 AM CST 7:21 PM CST
Moon 6:51 PM CST (2/15) 7:03 AM CST (2/15)
Length of Visible Light 11h 45m
Length of Day
10h 52m
Waxing Gibbous, 99% of the Moon is Illuminated
Feb 15
Waxing Gibbous
Feb 22
Last Quarter
Mar 1
New
Mar 8
First Quarter
Mar 16
Full

Hourly Weather History & Observations

Time (CST) Temp. Windchill Dew Point Humidity Pressure Visibility Wind Dir Wind Speed Gust Speed Precip Events Conditions
12:15 AM 24.8 °F 17.9 °F 19.4 °F 80% 30.09 in 10.0 mi NNE 5.8 mph - N/A   Clear
12:35 AM 24.8 °F 17.9 °F 19.4 °F 80% 30.09 in 10.0 mi North 5.8 mph - N/A   Clear
12:55 AM 24.8 °F 17.9 °F 19.4 °F 80% 30.09 in 10.0 mi NNE 5.8 mph - N/A   Clear
1:15 AM 24.8 °F 19.1 °F 19.4 °F 80% 30.09 in 10.0 mi NNE 4.6 mph - N/A   Clear
1:35 AM 23.0 °F 17.0 °F 19.4 °F 86% 30.08 in 10.0 mi NE 4.6 mph - N/A   Clear
1:55 AM 23.0 °F - 19.4 °F 86% 30.08 in 10.0 mi Calm Calm - N/A   Clear
2:15 AM 23.0 °F 17.0 °F 17.6 °F 80% 30.06 in 10.0 mi NE 4.6 mph - N/A   Clear
2:35 AM 23.0 °F - 17.6 °F 80% 30.06 in 10.0 mi Calm Calm - N/A   Clear
2:55 AM 23.0 °F - 17.6 °F 80% 30.08 in 9.0 mi Calm Calm - N/A   Clear
3:15 AM 21.2 °F - 17.6 °F 86% 30.07 in 9.0 mi Calm Calm - N/A   Clear
3:35 AM 21.2 °F - 17.6 °F 86% 30.07 in 10.0 mi Calm Calm - N/A   Clear
3:55 AM 19.4 °F - 17.6 °F 93% 30.07 in 7.0 mi Calm Calm - N/A   Clear
4:15 AM 19.4 °F 12.8 °F 17.6 °F 93% 30.09 in 7.0 mi WSW 4.6 mph - N/A   Scattered Clouds
4:35 AM 19.4 °F - 17.6 °F 93% 30.10 in 5.0 mi Calm Calm - N/A   Overcast
4:55 AM 19.4 °F - 17.6 °F 93% 30.10 in 7.0 mi Calm Calm - N/A   Overcast
5:15 AM 19.4 °F - 17.6 °F 93% 30.11 in 6.0 mi Calm Calm - N/A   Overcast
5:35 AM 19.4 °F - 17.6 °F 93% 30.10 in 6.0 mi Calm Calm - N/A   Overcast
5:55 AM 21.2 °F - 17.6 °F 86% 30.09 in 9.0 mi Calm Calm - N/A   Overcast
6:15 AM 23.0 °F - 17.6 °F 80% 30.09 in 9.0 mi Calm Calm - N/A   Overcast
6:35 AM 21.2 °F 16.4 °F 17.6 °F 86% 30.10 in 9.0 mi East 3.5 mph - N/A   Overcast
6:55 AM 23.0 °F 18.4 °F 17.6 °F 80% 30.10 in 10.0 mi ESE 3.5 mph - N/A   Overcast
7:15 AM 23.0 °F 18.4 °F 17.6 °F 80% 30.10 in 9.0 mi SE 3.5 mph - N/A   Mostly Cloudy
7:35 AM 24.8 °F - 17.6 °F 74% 30.10 in 10.0 mi Calm Calm - N/A   Overcast
7:55 AM - - - N/A% 30.10 in 10.0 mi ESE 3.5 mph - N/A   Overcast
8:15 AM 24.8 °F - 19.4 °F 80% 30.12 in 8.0 mi Calm Calm - N/A   Overcast
8:35 AM 26.6 °F 21.2 °F 21.2 °F 80% 30.12 in 7.0 mi South 4.6 mph - N/A   Overcast
8:55 AM 26.6 °F 21.2 °F 21.2 °F 80% 30.10 in 10.0 mi SE 4.6 mph - N/A   Overcast
9:15 AM 28.4 °F - 21.2 °F 74% - 10.0 mi North - - N/A   Unknown
9:35 AM 28.4 °F 23.3 °F 21.2 °F 74% 30.11 in 10.0 mi ESE 4.6 mph - N/A   Overcast
9:55 AM 30.2 °F 24.3 °F 23.0 °F 75% 30.09 in 10.0 mi SE 5.8 mph - N/A   Mostly Cloudy
10:15 AM 32.0 °F 27.5 °F 21.2 °F 64% 30.10 in 10.0 mi SE 4.6 mph - N/A   Scattered Clouds
10:35 AM 33.8 °F 29.6 °F 23.0 °F 65% 30.08 in 10.0 mi ESE 4.6 mph - N/A   Partly Cloudy
10:55 AM 35.6 °F 29.9 °F 21.2 °F 56% 30.05 in 10.0 mi ESE 6.9 mph - N/A   Clear
11:15 AM 35.6 °F 29.9 °F 21.2 °F 56% 30.04 in 10.0 mi SE 6.9 mph - N/A   Clear
11:35 AM 39.2 °F 33.6 °F 23.0 °F 52% 30.03 in 10.0 mi ESE 8.1 mph - N/A   Clear
11:55 AM 41.0 °F 36.4 °F 23.0 °F 49% 30.02 in 10.0 mi SSE 6.9 mph - N/A   Clear
12:15 PM 42.8 °F 38.0 °F 23.0 °F 46% 30.00 in 10.0 mi SSE 8.1 mph - N/A   Clear
12:35 PM 44.6 °F 40.2 °F 23.0 °F 43% 30.00 in 10.0 mi SE 8.1 mph - N/A   Clear
12:55 PM 46.4 °F 41.9 °F 23.0 °F 40% 29.98 in 10.0 mi SE 9.2 mph - N/A   Partly Cloudy
1:15 PM 48.2 °F - 24.8 °F 40% 29.95 in 10.0 mi SE 8.1 mph - N/A   Clear
1:35 PM 50.0 °F - 24.8 °F 37% 29.93 in 10.0 mi ESE 10.4 mph - N/A   Clear
1:55 PM 51.8 °F - 24.8 °F 35% 29.91 in 10.0 mi ESE 9.2 mph 16.1 mph N/A   Clear
2:15 PM 53.6 °F - 24.8 °F 33% 29.92 in 10.0 mi SSE 8.1 mph 16.1 mph N/A   Clear
2:35 PM 55.4 °F - 24.8 °F 31% 29.90 in 10.0 mi SE 6.9 mph - N/A   Unknown
2:55 PM 57.2 °F - 21.2 °F 25% 29.91 in 10.0 mi SSW 13.8 mph 21.9 mph N/A   Partly Cloudy
3:15 PM 55.4 °F - 21.2 °F 26% 29.92 in 10.0 mi SW 11.5 mph 16.1 mph N/A   Scattered Clouds
3:35 PM 55.4 °F - 23.0 °F 29% 29.90 in 10.0 mi SW 10.4 mph 17.3 mph N/A   Partly Cloudy
3:55 PM 55.4 °F - 23.0 °F 29% 29.93 in 10.0 mi WSW 17.3 mph - N/A   Clear
4:15 PM 55.4 °F - 23.0 °F 29% 29.93 in 10.0 mi WSW 13.8 mph 24.2 mph N/A   Scattered Clouds
4:35 PM 55.4 °F - 23.0 °F 29% 29.94 in 10.0 mi WSW 11.5 mph 21.9 mph N/A   Mostly Cloudy
4:55 PM 55.4 °F - 23.0 °F 29% 29.93 in 10.0 mi SW 12.7 mph 17.3 mph N/A   Mostly Cloudy
5:15 PM 55.4 °F - 23.0 °F 29% 29.93 in 10.0 mi SW 12.7 mph 16.1 mph N/A   Scattered Clouds
5:35 PM 53.6 °F - 24.8 °F 33% 29.95 in 10.0 mi SW 9.2 mph - N/A   Partly Cloudy
5:55 PM 53.6 °F - 24.8 °F 33% 29.95 in 10.0 mi WSW 8.1 mph - N/A   Partly Cloudy
6:15 PM 51.8 °F - 24.8 °F 35% 29.96 in 10.0 mi SW 5.8 mph - N/A   Scattered Clouds
6:35 PM 50.0 °F - 26.6 °F 40% 29.97 in 10.0 mi WSW 4.6 mph - N/A   Partly Cloudy
6:55 PM 50.0 °F - 26.6 °F 40% 29.97 in 10.0 mi SW 5.8 mph - N/A   Scattered Clouds
7:15 PM 50.0 °F - 26.6 °F 40% 29.97 in 10.0 mi WSW 4.6 mph - N/A   Partly Cloudy
7:35 PM 50.0 °F - 26.6 °F 40% 29.98 in 10.0 mi SW 4.6 mph - N/A   Mostly Cloudy
7:55 PM 48.2 °F - 26.6 °F 43% 29.99 in 10.0 mi WSW 4.6 mph - N/A   Scattered Clouds
8:15 PM 48.2 °F - 26.6 °F 43% 29.99 in 10.0 mi West 3.5 mph - N/A   Clear
8:35 PM 48.2 °F - 26.6 °F 43% 29.99 in 10.0 mi West 3.5 mph - N/A   Clear
8:55 PM 48.2 °F - 28.4 °F 46% 30.00 in 10.0 mi WNW 5.8 mph - N/A   Clear
9:15 PM 48.2 °F - 26.6 °F 43% 30.02 in 10.0 mi NW 6.9 mph - N/A   Partly Cloudy
9:35 PM 48.2 °F - 26.6 °F 43% 30.03 in 10.0 mi NW 3.5 mph - N/A   Clear
9:55 PM 46.4 °F 44.3 °F 26.6 °F 46% 30.03 in 10.0 mi WNW 4.6 mph - N/A   Partly Cloudy
10:15 PM 46.4 °F 45.2 °F 26.6 °F 46% 30.04 in 10.0 mi WNW 3.5 mph - N/A   Clear
10:35 PM 46.4 °F 44.3 °F 28.4 °F 50% 30.03 in 10.0 mi NW 4.6 mph - N/A   Clear
10:55 PM 44.6 °F 42.2 °F 28.4 °F 53% 30.04 in 10.0 mi West 4.6 mph - N/A   Clear
11:15 PM 44.6 °F 42.2 °F 28.4 °F 53% 30.04 in 10.0 mi WNW 4.6 mph - N/A   Clear
11:35 PM 44.6 °F 42.2 °F 28.4 °F 53% 30.04 in 10.0 mi West 4.6 mph - N/A   Clear
11:55 PM 41.0 °F 36.4 °F 28.4 °F 61% 30.04 in 10.0 mi WSW 6.9 mph - N/A   Clear